Regional Weather Roundup
Issued by NWS

Home | Current Version | Previous Version | Graphics & Text | Print | Product List | Glossary On
Versions: 1 2 3 4 5 6 7 8 9 10 11 12 13 14 15 16 17 18 19 20 21 22 23 24 25 26 27 28 29 30 31 32 33 34 35 36 37 38 39 40 41 42 43 44 45 46 47 48 49 50
000
ASUS43 KFSD 251110
RWRSD

WEATHER ROUNDUP FOR SOUTH DAKOTA
NATIONAL WEATHER SERVICE SIOUX FALLS SD
600 AM CDT FRI JUL 25 2014

NOTE: "FAIR" INDICATES FEW OR NO CLOUDS BELOW 12,000 FEET WITH NO
SIGNIFICANT WEATHER AND/OR OBSTRUCTIONS TO VISIBILITY.


SDZ001>005-009-010-012>017-251200-
NORTHWEST AND NORTH CENTRAL SOUTH DAKOTA

CITY           SKY/WX    TMP DP  RH WIND       PRES   REMARKS
BUFFALO          N/A     54  46  74 SW5       29.88R
FAITH            N/A     63  54  72 N15       29.86R
MOBRIDGE       PTCLDY    65  64  97 NW6       29.76R
$$

SDZ012>016-024>037-041>051-057-063-072>074-251200-
SOUTHWEST AND SOUTH CENTRAL SOUTH DAKOTA

CITY           SKY/WX    TMP DP  RH WIND       PRES   REMARKS
RAPID CTY ARPT CLEAR     64  37  36 NW20      29.93R
PIERRE         CLEAR     70  66  87 N13       29.73R
CUSTER         CLEAR     61  44  53 N10G21    30.05R
ELLSWORTH AFB  CLEAR     64  38  37 NW20G25   29.93R
PHILIP         CLEAR     68  61  78 N13       29.81R
PINE RIDGE     CLEAR     64  53  67 NW10      29.93R
WINNER         FAIR      73  61  65 SW3       29.71R
$$

SDZ004>011-016>023-039-040-251200-
NORTHEAST SOUTH DAKOTA

CITY           SKY/WX    TMP DP  RH WIND       PRES   REMARKS
ABERDEEN       PTCLDY    64  64 100 SW3       29.69R
WATERTOWN      CLOUDY    65  62  90 S14G26    29.71F
SISSETON         N/A     63  63 100 SE7       29.68S
$$

SDZ017-020-022-023-036>040-048>070-251200-
SOUTHEAST SOUTH DAKOTA

CITY           SKY/WX    TMP DP  RH WIND       PRES   REMARKS
SIOUX FALLS    CLOUDY    66  61  84 SE20G29   29.81R THUNDER
HURON          PTCLDY    68  63  84 N6        29.72R
CHAMBERLAIN    CLEAR     69  64  82 S8        29.68S
MITCHELL       PTCLDY    68  63  84 SE15      29.71F
YANKTON        CLEAR     66  63  88 NE10      29.77R
$$

ABBREVIATIONS USED IN REMARKS
   TC - TEMPERATURE IN CELSIUS
  WCI - WIND CHILL INDEX
   HX - HEAT INDEX
  VSB - VISIBILITY




USA.gov is the U.S. government's official web portal to all federal, state and local government web resources and services.